• In Belarus
  • List of Countries
  • For 7 days
  • Water Temperature
  • Satellite Maps
  • Weather Map
  • Weather Widgets
  • user-avatar
    Login

    Hourly Weather Yaremcha

    Today, 22 February, Thursday

    Time Temperature Precipitation Wind Pressure Humidity
    00:00 -3°C° 0 mm 1 mps 703 mmHg 100%
    01:00 -4°C° 0 mm 1 mps 703 mmHg 100%
    02:00 -1°C° 0 mm 1 mps 704 mmHg 100%
    03:00 -4°C° 0.1 mm 1 mps 703 mmHg 100%
    04:00 -4°C° 0.3 mm 1 mps 703 mmHg 100%
    05:00 -4°C° 0.2 mm 1 mps 704 mmHg 100%
    06:00 -4°C° 0.2 mm 1 mps 703 mmHg 100%
    07:00 -6°C° 0.1 mm 0 mps 703 mmHg 100%
    08:00 -6°C° 0.1 mm 0 mps 703 mmHg 100%
    09:00 -5°C° 0.1 mm 0 mps 703 mmHg 100%
    10:00 -4°C° 0 mm 1 mps 704 mmHg 100%
    11:00 -5°C° 0 mm 2 mps 704 mmHg 100%
    12:00 -4°C° 0.1 mm 2 mps 704 mmHg 100%
    13:00 -5°C° 0.1 mm 3 mps 704 mmHg 100%
    14:00 -5°C° 0.1 mm 3 mps 704 mmHg 100%
    15:00 -6°C° 0.1 mm 3 mps 704 mmHg 100%
    16:00 -5°C° 0.2 mm 2 mps 704 mmHg 100%
    17:00 -5°C° 0.1 mm 2 mps 704 mmHg 100%
    18:00 -6°C° 0.2 mm 2 mps 703 mmHg 100%
    19:00 -4°C° 0.1 mm 1 mps 703 mmHg 100%
    20:00 -6°C° 0.2 mm 1 mps 703 mmHg 100%
    21:00 -6°C° 0.1 mm 1 mps 703 mmHg 100%
    22:00 -6°C° 0.1 mm 1 mps 703 mmHg 100%
    23:00 -6°C° 0 mm 1 mps 703 mmHg 100%

    Tomorrow, 23 February, Friday

    Time Temperature Precipitation Wind Pressure Humidity
    00:00 -6°C° 0.1 mm 1 mps 703 mmHg 100%
    01:00 -6°C° 0.2 mm 1 mps 703 mmHg 100%
    02:00 -6°C° 0.1 mm 1 mps 703 mmHg 100%
    03:00 -6°C° 0.4 mm 1 mps 703 mmHg 100%
    04:00 -6°C° 0.6 mm 1 mps 703 mmHg 100%
    05:00 -6°C° 0.3 mm 1 mps 703 mmHg 100%
    06:00 -6°C° 0.1 mm 1 mps 703 mmHg 100%
    07:00 -6°C° 0.2 mm 1 mps 703 mmHg 100%
    08:00 -6°C° 0.1 mm 1 mps 703 mmHg 100%
    09:00 -6°C° 0.1 mm 1 mps 703 mmHg 100%
    10:00 -4°C° 0.1 mm 1 mps 704 mmHg 100%
    11:00 -5°C° 0 mm 2 mps 704 mmHg 100%
    12:00 -4°C° 0.1 mm 2 mps 704 mmHg 100%
    13:00 -4°C° 0.1 mm 2 mps 704 mmHg 100%
    14:00 -4°C° 0.1 mm 2 mps 704 mmHg 100%
    15:00 -4°C° 0.1 mm 2 mps 704 mmHg 100%
    16:00 -4°C° 0.1 mm 2 mps 703 mmHg 100%
    17:00 -5°C° 0.1 mm 2 mps 703 mmHg 100%
    18:00 -6°C° 0.2 mm 2 mps 703 mmHg 100%
    19:00 -6°C° 0.5 mm 2 mps 704 mmHg 100%
    20:00 -6°C° 0.7 mm 2 mps 704 mmHg 100%
    21:00 -7°C° 0.6 mm 2 mps 704 mmHg 100%
    22:00 -7°C° 0.4 mm 2 mps 704 mmHg 100%
    23:00 -7°C° 0.3 mm 2 mps 704 mmHg 100%

    Day after tomorrow, 24 February, Saturday

    Time Temperature Precipitation Wind Pressure Humidity
    00:00 -7°C° 0.2 mm 1 mps 704 mmHg 100%
    01:00 -7°C° 0.2 mm 1 mps 703 mmHg 100%
    02:00 -7°C° 0.2 mm 1 mps 703 mmHg 100%
    03:00 -8°C° 0.1 mm 1 mps 703 mmHg 100%
    04:00 -9°C° 0.2 mm 2 mps 703 mmHg 100%
    05:00 -10°C° 0.1 mm 2 mps 703 mmHg 100%
    06:00 -13°C° 0.1 mm 2 mps 703 mmHg 100%
    07:00 -12°C° 0.1 mm 1 mps 703 mmHg 100%
    08:00 -12°C° 0.1 mm 1 mps 703 mmHg 100%
    09:00 -12°C° 0 mm 1 mps 703 mmHg 100%
    10:00 -13°C° 0 mm 2 mps 703 mmHg 100%
    11:00 -12°C° 0 mm 2 mps 704 mmHg 100%
    12:00 -13°C° 0 mm 3 mps 704 mmHg 100%
    13:00 -13°C° 0 mm 3 mps 704 mmHg 100%
    14:00 -13°C° 0 mm 3 mps 704 mmHg 100%
    15:00 -13°C° 0 mm 3 mps 704 mmHg 100%
    16:00 -13°C° 0 mm 3 mps 703 mmHg 100%
    17:00 -14°C° 0.1 mm 3 mps 704 mmHg 100%
    18:00 -16°C° 0 mm 3 mps 703 mmHg 100%
    19:00 -16°C° 0 mm 2 mps 703 mmHg 100%
    20:00 -17°C° 0 mm 2 mps 704 mmHg 100%
    21:00 -18°C° 0 mm 2 mps 704 mmHg 100%
    22:00 -18°C° 0 mm 2 mps 704 mmHg 100%
    23:00 -19°C° 0.1 mm 2 mps 704 mmHg 100%

    25 February, Sunday

    Time Temperature Precipitation Wind Pressure Humidity
    00:00 -19°C° 0 mm 2 mps 704 mmHg 100%
    01:00 -18°C° 0 mm 2 mps 704 mmHg 100%
    02:00 -16°C° 0.1 mm 1 mps 704 mmHg 100%
    03:00 -18°C° 0 mm 2 mps 705 mmHg 100%
    04:00 -16°C° 0.1 mm 1 mps 705 mmHg 100%
    05:00 -15°C° 0.1 mm 1 mps 705 mmHg 100%
    06:00 -15°C° 0.1 mm 1 mps 705 mmHg 100%
    07:00 -15°C° 0.1 mm 1 mps 706 mmHg 100%
    08:00 -15°C° 0.1 mm 1 mps 706 mmHg 100%
    09:00 -15°C° 0 mm 1 mps 706 mmHg 100%
    10:00 -14°C° 0 mm 1 mps 707 mmHg 100%
    11:00 -14°C° 0 mm 1 mps 707 mmHg 100%
    12:00 -15°C° 0 mm 2 mps 707 mmHg 100%
    13:00 -14°C° 0 mm 2 mps 707 mmHg 100%
    14:00 -14°C° 0 mm 2 mps 707 mmHg 100%
    15:00 -14°C° 0 mm 2 mps 707 mmHg 100%
    16:00 -14°C° 0.1 mm 2 mps 707 mmHg 100%
    17:00 -15°C° 0 mm 2 mps 707 mmHg 100%
    18:00 -16°C° 0.1 mm 2 mps 707 mmHg 100%
    19:00 -15°C° 0.1 mm 1 mps 707 mmHg 100%
    20:00 -15°C° 0 mm 1 mps 707 mmHg 100%
    21:00 -16°C° 0 mm 0 mps 707 mmHg 100%
    22:00 -16°C° 0 mm 0 mps 707 mmHg 100%
    23:00 -17°C° 0 mm 1 mps 707 mmHg 100%

    26 February, Monday

    Time Temperature Precipitation Wind Pressure Humidity
    00:00 -17°C° 0 mm 1 mps 707 mmHg 100%
    01:00 -17°C° 0 mm 1 mps 706 mmHg 100%
    02:00 -17°C° 0 mm 1 mps 706 mmHg 100%

    27 February, Tuesday

    Time Temperature Precipitation Wind Pressure Humidity
    Show more